ITUPSAT1 (35935 NORAD) Tracking and Keplerian Element Data

This shows tracking and keplerian element data for the satellite.

Feedback or suggestion? Click here.




ElementValue
Catalog35935
NameITUPSAT1
Epoch Orbit79939
Epoch Day286.73901625
Epoch Year2024
RAAN172.8122
Inclination98.4544
Eccentricity0.0007529
Argument of Perigee346.5745
Mean Anonmoly13.5252
Mean Motion14.58413329
Decay Rate4.654E-05
L11 35935U 09051E 24286.73901625 .00004654 00000+0 10136-2 0 9996
L22 35935 98.4544 172.8122 0007529 346.5745 13.5252 14.58413329799396



Live tracking and technical data element details for ITUPSAT1 (NORAD 35935). ITUPSAT1 can be tracked NOW for your location showing map with azimuth and elevation plus other details from your city location.







IsCatalogInMostPopularTable: catalog: 35935, numindb: 497
Update: records affected: 1



GetName: 35935 ITUPSAT1

Hit Count: updated at: Thu, 23 Jan 2025 17:37:02 GMT